[[{"header":{"parameterUnit":"m.s-1","parameterCategory":1,"la1":30.2991,"la2":30.254,"lo1":-89.0895,"lo2":-89.0444,"dy":0.0017,"dx":0.0017,"nx":28,"ny":28,"refTime":"2024-04-23T09:00:00:Z","depth":0,"parameterNumber":2,"parameterNumberName":"U-component_of_WINDS"},"data":[0,0,0,0,0,0,0,0,0,0,0,0,0,0,0,0,0,0,0,0,0,0,0,0,0,0,0,0,0,0,0,0,0,0,0,0,0,0,0,0,0,0,0,0,0,0,0,0,0,0,0,0,0,0,0,0,0,0,-0.6404,-0.6403,0,-0.6323,-0.6322,-0.6321,-0.627,-0.627,-0.627,-0.6269,-0.6184,-0.6182,-0.618,0,0,0,0,0,0,0,0,0,0,0,0,0,-0.6514,-0.6513,-0.6404,-0.6403,-0.6402,-0.6323,-0.6322,-0.6321,-0.627,-0.627,-0.627,-0.6269,-0.6184,-0.6182,-0.6179,0,0,0,0,0,0,0,0,0,0,0,0,0,-0.6453,-0.6512,-0.6404,-0.6368,-0.6363,-0.6323,-0.6322,-0.632,-0.627,-0.627,-0.627,-0.6269,-0.6185,-0.6182,-0.6179,-0.6168,0,0,-0.617,-0.6168,0,0,0,0,0,0,0,0,-0.6457,-0.6449,-0.6374,-0.637,-0.6365,-0.6306,-0.6329,-0.6269,-0.627,-0.6306,-0.6269,-0.6269,-0.6225,-0.6218,-0.6204,-0.6164,-0.6161,-0.617,-0.6168,-0.6166,-0.6165,0,0,0,0,0,0,0,-0.6461,-0.6452,-0.6372,-0.6373,-0.6368,-0.6355,-0.6345,-0.6318,-0.6268,-0.6303,-0.6299,-0.629,-0.6222,-0.6207,-0.6201,-0.6159,-0.617,-0.6167,-0.6165,-0.6164,-0.6107,-0.6108,0,0,0,0,0,0,-0.6471,-0.6456,-0.6374,-0.6369,-0.6411,-0.6353,-0.6343,-0.6326,-0.6268,-0.6259,-0.629,-0.6288,-0.6212,-0.6205,-0.6198,-0.6182,-0.6166,-0.6164,-0.6162,-0.6107,-0.6108,-0.6108,0,0,0,0,0,0,-0.6474,-0.6465,-0.6378,-0.6412,-0.64,-0.6351,-0.6333,-0.6324,-0.6309,-0.6259,-0.625,-0.6284,-0.6212,-0.6203,-0.6176,-0.6178,-0.6162,-0.6159,-0.6107,-0.6107,-0.6108,-0.6149,0,0,0,0,0,0,-0.6477,-0.6466,-0.6461,-0.6412,-0.6398,-0.6358,-0.6333,-0.6323,-0.6304,-0.63,-0.6251,-0.6242,-0.6211,-0.6181,-0.6173,-0.6174,-0.6157,-0.6106,-0.6107,-0.6108,-0.6148,-0.6151,-0.6154,0,0,0,0,0,-0.6481,-0.6476,-0.6461,-0.6452,-0.6392,-0.6358,-0.635,-0.6315,-0.6304,-0.6299,-0.6268,-0.6244,-0.618,-0.6179,-0.617,-0.6169,-0.6106,-0.6107,-0.6108,-0.6146,-0.6151,-0.6154,0,0,0,0,0,0,-0.6525,-0.6468,-0.6452,-0.643,-0.64,-0.635,-0.6342,-0.632,-0.6291,-0.6288,-0.6245,-0.6234,-0.6213,-0.6188,-0.6189,-0.6156,-0.614,-0.6139,-0.6173,-0.6176,-0.618,-0.6186,-0.6154,0,0,0,0,0,-0.6533,-0.6511,-0.6462,-0.6447,-0.6433,-0.6391,-0.6374,-0.635,-0.6316,-0.6302,-0.6269,-0.6236,-0.6209,-0.6191,-0.6163,-0.6144,-0.6133,-0.6139,-0.6143,-0.6146,-0.6145,-0.6134,-0.6136,-0.611,-0.611,-0.611,0,0,-0.6547,-0.6513,-0.6502,-0.6456,-0.6429,-0.6406,-0.638,-0.6357,-0.634,-0.6299,-0.6272,-0.6247,-0.6207,-0.6185,-0.6174,-0.6164,-0.615,-0.6147,-0.615,-0.6147,-0.6135,-0.6137,-0.6139,-0.6111,-0.6111,-0.6111,0,0,-0.6562,-0.6535,-0.652,-0.6494,-0.6454,-0.6426,-0.6423,-0.6377,-0.6358,-0.6331,-0.63,-0.6279,-0.6233,-0.6206,-0.6186,-0.6193,-0.617,-0.6185,-0.6203,-0.6192,-0.6194,-0.6196,-0.6198,-0.6199,-0.6185,-0.6185,-0.6185,0,-0.6585,-0.655,-0.6514,-0.6494,-0.6475,-0.6438,-0.6422,-0.6399,-0.6352,-0.6339,-0.6329,-0.6271,-0.6242,-0.6213,-0.6215,-0.6201,-0.6195,-0.619,-0.6197,-0.6198,-0.6199,-0.6201,-0.6202,-0.6187,-0.6187,-0.6187,-0.6187,0,-0.658,-0.6557,-0.655,-0.6507,-0.6486,-0.6469,-0.643,-0.6413,-0.6391,-0.6364,-0.6338,-0.6302,-0.6266,-0.6258,-0.6235,-0.6226,-0.6222,-0.6205,-0.6188,-0.6204,-0.6205,-0.6205,-0.619,-0.619,-0.6189,-0.6188,0,0,-0.6619,-0.6557,-0.6555,-0.6535,-0.649,-0.6471,-0.6452,-0.6418,-0.6405,-0.6374,-0.6357,-0.6319,-0.6304,-0.6282,-0.6256,-0.6247,-0.6255,-0.6232,-0.623,-0.6237,-0.6243,-0.6255,-0.6256,-0.624,-0.624,-0.624,-0.6246,0,-0.6627,-0.6591,-0.6558,-0.6534,-0.6512,-0.6478,-0.6461,-0.6431,-0.6406,-0.6383,-0.6355,-0.6329,-0.6311,-0.6298,-0.6287,-0.6257,-0.6256,-0.6256,-0.6223,-0.6222,-0.6233,-0.6257,-0.6269,-0.6276,-0.6246,-0.6246,-0.6246,0,-0.663,-0.6602,-0.6576,-0.6534,-0.6523,-0.6509,-0.6476,-0.6455,-0.6421,-0.6403,-0.6379,-0.6353,-0.6331,-0.6317,-0.6286,-0.6287,-0.6272,-0.6255,-0.6254,-0.6249,-0.6235,-0.6252,-0.6278,-0.6279,-0.6246,-0.6246,-0.6246,0,-0.6661,-0.6617,-0.6595,-0.658,-0.6529,-0.652,-0.6499,-0.6464,-0.6446,-0.6417,-0.6405,-0.6374,-0.6357,-0.6333,-0.6299,-0.6292,-0.6271,-0.6255,-0.6256,-0.6256,-0.6252,-0.6252,-0.6275,-0.6243,-0.6243,-0.6243,-0.6243,0,-0.6672,-0.6658,-0.6609,-0.6595,-0.6578,-0.6541,-0.6525,-0.65,-0.647,-0.6451,-0.642,-0.6403,-0.6359,-0.6337,-0.631,-0.6289,-0.6281,-0.6266,-0.6259,-0.6268,-0.627,-0.6257,-0.6255,-0.6244,-0.6243,-0.6243,-0.6243,0,-0.6703,-0.667,-0.6644,-0.6599,-0.6588,-0.6577,-0.6538,-0.6524,-0.6498,-0.6475,-0.6467,-0.6426,-0.6398,-0.6362,-0.6323,-0.6305,-0.6287,-0.6276,-0.6298,-0.6294,-0.6297,-0.6297,-0.6311,-0.6311,-0.6281,-0.6281,-0.6281,0,-0.6712,-0.67,-0.6655,-0.664,-0.662,-0.6598,-0.658,-0.6543,-0.6526,-0.6487,-0.6477,-0.6448,-0.6422,-0.6379,-0.6345,-0.6315,-0.6303,-0.6311,-0.6298,-0.6309,-0.6303,-0.6304,-0.6303,-0.6313,-0.6314,-0.6314,-0.6315,0,-0.6732,-0.6716,-0.6692,-0.6662,-0.6642,-0.6616,-0.659,-0.658,-0.6538,-0.652,-0.6492,-0.6472,-0.6433,-0.6404,-0.637,-0.6347,-0.6324,-0.6319,-0.6317,-0.6327,-0.634,-0.6333,-0.6306,-0.6318,-0.6318,-0.6318,-0.6318,-0.6317,-0.6751,-0.6739,-0.6706,-0.668,-0.6657,-0.6632,-0.6617,-0.659,-0.6566,-0.6532,-0.6512,-0.6485,-0.6452,-0.6404,-0.6382,-0.636,-0.6351,-0.6349,-0.6349,-0.6348,-0.6352,-0.6345,-0.6354,-0.6354,-0.6354,-0.6354,-0.6353,0,-0.6769,-0.6747,-0.6723,-0.6687,-0.6667,-0.6649,-0.6618,-0.6602,-0.6579,-0.655,-0.6526,-0.6494,-0.6466,-0.6431,-0.6401,-0.639,-0.6378,-0.6383,-0.6383,-0.6378,-0.6361,-0.6366,-0.6393,-0.6393,-0.6393,-0.6393,-0.6393,-0.6393,-0.6776,-0.6755,-0.6736,-0.6703,-0.668,-0.6654,-0.6638,-0.6616,-0.6593,-0.6559,-0.6536,-0.6514,-0.6482,-0.6449,-0.6423,-0.6413,-0.6403,-0.6411,-0.6398,-0.6383,-0.6379,-0.6376,-0.638,-0.6409,-0.6409,-0.6416,-0.6417,-0.6417]},{"header":{"parameterUnit":"m.s-1","parameterCategory":1,"la1":30.2991,"la2":30.254,"lo1":-89.0895,"lo2":-89.0444,"dy":0.0017,"dx":0.0017,"nx":28,"ny":28,"refTime":"2024-04-23T09:00:00:Z","depth":0,"parameterNumber":3,"parameterNumberName":"V-component_of_WINDS"},"data":[0,0,0,0,0,0,0,0,0,0,0,0,0,0,0,0,0,0,0,0,0,0,0,0,0,0,0,0,0,0,0,0,0,0,0,0,0,0,0,0,0,0,0,0,0,0,0,0,0,0,0,0,0,0,0,0,0,0,2.1081,2.1081,0,2.106,2.1059,2.1059,2.1093,2.1094,2.1095,2.1096,2.107,2.1068,2.1066,0,0,0,0,0,0,0,0,0,0,0,0,0,2.1146,2.1145,2.1081,2.1081,2.108,2.106,2.1059,2.1059,2.1092,2.1094,2.1095,2.1097,2.107,2.1068,2.1066,0,0,0,0,0,0,0,0,0,0,0,0,0,2.112,2.1144,2.1081,2.1095,2.1096,2.106,2.1059,2.1059,2.1092,2.1094,2.1096,2.1097,2.1071,2.1069,2.1066,2.1014,0,0,2.1058,2.1057,0,0,0,0,0,0,0,0,2.1122,2.1118,2.1093,2.1094,2.1095,2.1081,2.1073,2.1044,2.1092,2.1093,2.1096,2.1098,2.1072,2.1069,2.1061,2.1013,2.1012,2.1057,2.1056,2.1055,2.1054,0,0,0,0,0,0,0,2.1124,2.1119,2.1072,2.1092,2.1094,2.11,2.1099,2.1067,2.1073,2.1093,2.1096,2.1093,2.1073,2.1064,2.1061,2.1011,2.1058,2.1055,2.1053,2.1052,2.0917,2.0916,0,0,0,0,0,0,2.1124,2.112,2.1073,2.1072,2.1113,2.1098,2.1096,2.1083,2.1073,2.1074,2.1092,2.1095,2.1067,2.1064,2.106,2.0997,2.1055,2.1052,2.1051,2.0919,2.0917,2.0915,0,0,0,0,0,0,2.1126,2.112,2.1074,2.1097,2.1091,2.1095,2.108,2.1082,2.1073,2.1072,2.1073,2.1082,2.1069,2.1064,2.1025,2.0997,2.1051,2.1048,2.0922,2.0919,2.0916,2.0871,0,0,0,0,0,0,2.1127,2.112,2.1101,2.1096,2.109,2.1041,2.1079,2.108,2.1069,2.1073,2.1063,2.1063,2.107,2.1029,2.1022,2.0994,2.1046,2.0924,2.092,2.0917,2.0875,2.0867,2.086,0,0,0,0,0,2.113,2.1089,2.11,2.1094,2.1067,2.1039,2.1035,2.1045,2.1067,2.1047,2.1046,2.1063,2.1001,2.1025,2.1018,2.0988,2.0926,2.0921,2.0917,2.0879,2.0869,2.0861,0,0,0,0,0,0,2.1089,2.1089,2.1101,2.1058,2.1048,2.1045,2.102,2.1035,2.1018,2.1022,2.1034,2.1031,2.0989,2.0985,2.1011,2.0936,2.0967,2.0961,2.094,2.0931,2.0923,2.0924,2.1044,0,0,0,0,0,2.1076,2.1055,2.1055,2.1017,2.1011,2.1017,2.1005,2.1013,2.1003,2.0999,2.0995,2.0983,2.0961,2.0946,2.0926,2.0876,2.0873,2.0852,2.0844,2.0838,2.0832,2.0803,2.0793,2.09,2.09,2.09,0,0,2.1047,2.1044,2.103,2.1008,2.1002,2.0978,2.1013,2.0986,2.0968,2.0994,2.0957,2.0954,2.0942,2.0897,2.0877,2.0892,2.0802,2.0832,2.0827,2.0824,2.0797,2.0787,2.0778,2.0897,2.0898,2.0898,0,0,2.0982,2.0979,2.0946,2.0939,2.0929,2.0933,2.0925,2.0919,2.0918,2.0882,2.0901,2.0879,2.0841,2.0831,2.082,2.0751,2.0765,2.0744,2.0704,2.0676,2.0667,2.066,2.0633,2.0623,2.0739,2.0739,2.0739,0,2.0947,2.0913,2.0927,2.0898,2.0887,2.0912,2.0878,2.087,2.0853,2.0844,2.0863,2.0815,2.0808,2.076,2.0743,2.0735,2.0725,2.0744,2.0668,2.066,2.0653,2.0628,2.0618,2.0736,2.0736,2.0736,2.0737,0,2.0869,2.0845,2.0819,2.0804,2.079,2.0759,2.0767,2.0751,2.0761,2.0762,2.0724,2.0717,2.0695,2.0685,2.0694,2.0638,2.0647,2.0666,2.0697,2.064,2.0616,2.0607,2.0732,2.0733,2.0734,2.0734,0,0,2.0776,2.0769,2.0759,2.0752,2.0743,2.0724,2.0693,2.0673,2.0659,2.0647,2.0619,2.0587,2.0604,2.0593,2.0601,2.0577,2.0519,2.0599,2.0598,2.0582,2.0454,2.0438,2.0427,2.053,2.0528,2.0527,2.0454,0,2.071,2.0658,2.067,2.0618,2.0594,2.0618,2.0591,2.0581,2.0582,2.0561,2.0561,2.0537,2.0563,2.0556,2.0533,2.0531,2.0493,2.0537,2.0502,2.0501,2.0502,2.0415,2.0398,2.033,2.0445,2.0444,2.0443,0,2.0625,2.061,2.0556,2.055,2.0541,2.0517,2.0498,2.0479,2.0468,2.047,2.0457,2.047,2.0438,2.0471,2.0425,2.0454,2.0441,2.0438,2.0435,2.043,2.0467,2.0405,2.0309,2.0297,2.0429,2.043,2.0431,0,2.056,2.0527,2.049,2.0484,2.0476,2.0458,2.0454,2.0445,2.0432,2.0416,2.0407,2.0387,2.0375,2.0358,2.0364,2.0388,2.0316,2.035,2.0315,2.0314,2.0297,2.0297,2.0194,2.0292,2.0292,2.0292,2.0293,0,2.0483,2.0448,2.0461,2.0438,2.0399,2.0413,2.0374,2.0372,2.0364,2.034,2.0359,2.0335,2.0346,2.0323,2.0328,2.0288,2.0283,2.0282,2.0283,2.0279,2.0278,2.0268,2.0272,2.029,2.029,2.0291,2.0291,0,2.0403,2.041,2.0371,2.0368,2.0366,2.0337,2.0334,2.0311,2.0314,2.0283,2.0276,2.0279,2.0253,2.0258,2.0229,2.0232,2.0181,2.0189,2.0185,2.0186,2.0149,2.0151,2.0034,2.0018,2.0128,2.0127,2.0126,0,2.0352,2.0326,2.032,2.0306,2.0301,2.0278,2.0264,2.0276,2.0261,2.0247,2.0226,2.0201,2.0182,2.0139,2.0137,2.0114,2.012,2.0081,2.0117,2.0113,2.0117,2.0117,2.0114,2.0073,2.0072,2.0071,2.007,0,2.026,2.0265,2.0246,2.0228,2.0212,2.0198,2.0185,2.0172,2.0183,2.0165,2.0139,2.0124,2.0095,2.0069,2.0048,2.0042,2.0056,2.0059,2.0049,2.0043,2.0041,2.0039,2.0162,2.0061,2.0062,2.0062,2.0063,2.0063,2.0192,2.0169,2.0161,2.0139,2.0131,2.0119,2.0098,2.0098,2.0077,2.0054,2.0062,2.0032,2.002,1.9994,1.9985,1.996,1.9975,1.9961,1.9957,1.9953,1.9947,2.0047,1.9957,1.9957,1.9957,1.9957,1.9958,0,2.0099,2.0096,2.0075,2.0057,2.0039,2.0057,2.0044,2.0027,2.0001,1.999,1.9971,1.994,1.9915,1.9912,1.9888,1.9869,1.9874,1.9862,1.9862,1.986,1.9937,1.9947,1.9857,1.9857,1.9857,1.9857,1.9857,1.9857,2.0049,2.0011,2.0015,1.9973,1.9969,1.994,1.9931,1.9919,1.991,1.9875,1.9855,1.9854,1.9845,1.9821,1.9799,1.9798,1.9787,1.9771,1.9773,1.9845,1.9855,1.9864,1.9873,1.977,1.977,1.9698,1.9697,1.9697]}]]